Location: *
(43.4667°N, 11.6833°E)
Time: 04:18:37
(UTC+00:00)

SJ-6B - Pass Details

Date: 19 July 2019
Orbit: 511 x 581 km, 97.7° (Epoch: 19 August)

Event Time Altitude Azimuth Distance (km) Brightness Sun altitude
Rises 19:18:58 0° 184° (S) 2,619 6.0 -5.4°
Reaches altitude 10° 19:21:09 10° 192° (SSW) 1,733 5.1 -5.7°
Maximum altitude 19:24:39 38° 262° (W) 800 4.1 -6.2°
Drops below altitude 10° 19:28:09 10° 331° (NNW) 1,742 6.6 -6.7°
Sets 19:30:22 0° 340° (NNW) 2,636 7.4 -7.0°
